Simultaneous Nadir Overpasses (SNOs) Predictions

Prediction of SNOs between GOES-17 and LANDSAT-8 Satellite Orbit:

Table of predicted SNOs for the next 14.0 days since TLE Epoch: 1/6/2024
Index Date Time (GOES-17) GOES-17 Lat,Lon LANDSAT-8 Lat,Lon Distance(km) Time Diff (sec)
1 01/07/2024 05:07:08 0.01,-104.67 0.13,-104.03 72.66 80
2 01/09/2024 04:54:58 0.01,-104.66 0.76,-101.08 407.41 80
3 01/09/2024 17:16:14 -0.01,-104.66 0.32,-106.24 178.85 80
4 01/11/2024 17:06:44 -0.00,-104.65 -0.32,-103.29 155.85 80
5 01/12/2024 05:28:08 0.00,-104.65 -0.81,-108.48 435.05 80
6 01/13/2024 16:54:33 0.01,-104.65 -0.92,-100.33 490.81 80
7 01/14/2024 05:15:57 -0.01,-104.64 -0.21,-105.52 100.01 80
8 01/16/2024 05:01:06 -0.02,-104.64 0.40,-102.56 235.44 80
9 01/16/2024 17:22:22 0.02,-104.64 0.68,-107.72 351.26 80
10 01/18/2024 17:10:11 0.02,-104.63 0.07,-104.77 15.87 80
